| time (UTC) | temp F | wind direction | speed MPH | gust MPH | rain 1hr in | rain 24hr in | rain mn in | humidity % | barometer mb |
| 20260505041543 | 68 | 181 | 0.0 | 0.0 | 0.00 | 0.17 | 0.00 | 40 | 1008.0 |
| 20260505041143 | 68 | 192 | 0.0 | 0.0 | 0.00 | 0.17 | 0.00 | 40 | 1008.0 |
| 20260505040543 | 68 | 195 | 0.0 | 0.0 | 0.00 | 0.17 | 0.00 | 40 | 1008.0 |
| 20260505040042 | 68 | 210 | 0.0 | 0.0 | 0.00 | 0.17 | 0.00 | 39 | 1008.0 |
| 20260505035540 | 68 | 211 | 0.0 | 0.0 | 0.00 | 0.17 | 0.17 | 39 | 1008.0 |
| 20260505035040 | 69 | 219 | 0.0 | 0.0 | 0.00 | 0.17 | 0.17 | 39 | 1008.0 |
| 20260505034556 | 69 | 228 | 0.0 | 0.0 | 0.00 | 0.17 | 0.17 | 39 | 1008.0 |
| 20260505034040 | 69 | 227 | 0.0 | 0.0 | 0.00 | 0.17 | 0.17 | 38 | 1007.9 |
| 20260505033540 | 69 | 257 | 0.0 | 0.0 | 0.00 | 0.17 | 0.17 | 38 | 1008.0 |
| 20260505033042 | 69 | 233 | 0.0 | 0.0 | 0.00 | 0.17 | 0.17 | 38 | 1007.9 |
| 20260505032540 | 69 | 221 | 0.0 | 0.0 | 0.00 | 0.17 | 0.17 | 38 | 1008.0 |
| 20260505032039 | 69 | 227 | 0.0 | 0.0 | 0.00 | 0.17 | 0.17 | 37 | 1007.9 |
| 20260505031539 | 70 | 228 | 0.0 | 0.0 | 0.00 | 0.17 | 0.17 | 37 | 1007.9 |
| 20260505031038 | 70 | 199 | 0.0 | 0.0 | 0.00 | 0.17 | 0.17 | 37 | 1007.8 |
| 20260505030541 | 70 | 227 | 0.0 | 0.0 | 0.00 | 0.17 | 0.17 | 37 | 1007.7 |
| 20260505030046 | 70 | 210 | 0.0 | 0.0 | 0.00 | 0.17 | 0.17 | 37 | 1007.6 |
| 20260505025538 | 70 | 215 | 0.0 | 0.0 | 0.00 | 0.17 | 0.17 | 37 | 1007.4 |
| 20260505025038 | 70 | 221 | 0.0 | 0.0 | 0.00 | 0.17 | 0.17 | 37 | 1007.4 |
| 20260505024537 | 70 | 236 | 0.0 | 0.0 | 0.00 | 0.17 | 0.17 | 37 | 1007.3 |
| 20260505024037 | 70 | 242 | 0.0 | 0.0 | 0.00 | 0.17 | 0.17 | 38 | 1007.2 |
| 20260505023537 | 70 | 223 | 0.0 | 0.0 | 0.00 | 0.17 | 0.17 | 37 | 1007.2 |
| 20260505023043 | 70 | 194 | 0.0 | 0.0 | 0.00 | 0.17 | 0.17 | 37 | 1007.0 |
| 20260505022537 | 70 | 233 | 0.0 | 6.0 | 0.00 | 0.17 | 0.17 | 37 | 1007.0 |
| 20260505022037 | 70 | 219 | 0.0 | 6.0 | 0.00 | 0.17 | 0.17 | 37 | 1006.9 |
| 20260505021537 | 70 | 219 | 0.0 | 0.0 | 0.00 | 0.17 | 0.17 | 37 | 1006.9 |
| 20260505021035 | 70 | 213 | 0.0 | 0.0 | 0.00 | 0.17 | 0.17 | 37 | 1006.8 |
| 20260505020536 | 71 | 219 | 0.0 | 0.0 | 0.00 | 0.17 | 0.17 | 36 | 1006.7 |
| 20260505020047 | 71 | 232 | 0.0 | 0.0 | 0.00 | 0.17 | 0.17 | 36 | 1006.8 |
| 20260505015535 | 71 | 210 | 0.0 | 0.0 | 0.00 | 0.17 | 0.17 | 36 | 1006.6 |
| 20260505015035 | 71 | 195 | 0.0 | 0.0 | 0.00 | 0.17 | 0.17 | 36 | 1006.5 |
| 20260505014540 | 71 | 216 | 0.0 | 0.0 | 0.00 | 0.17 | 0.17 | 36 | 1006.3 |
| 20260505014036 | 71 | 216 | 0.0 | 6.0 | 0.00 | 0.17 | 0.17 | 36 | 1006.2 |
| 20260505013536 | 71 | 212 | 1.0 | 7.0 | 0.00 | 0.17 | 0.17 | 36 | 1006.0 |
| 20260505013039 | 71 | 216 | 4.0 | 7.0 | 0.00 | 0.17 | 0.17 | 36 | 1005.8 |
| 20260505012536 | 71 | 217 | 4.0 | 10.0 | 0.00 | 0.17 | 0.17 | 36 | 1005.8 |
| 20260505012038 | 72 | 195 | 4.0 | 10.0 | 0.00 | 0.17 | 0.17 | 35 | 1005.7 |
| 20260505011534 | 72 | 190 | 1.0 | 9.0 | 0.00 | 0.17 | 0.17 | 34 | 1005.6 |
| 20260505011033 | 72 | 196 | 5.0 | 16.0 | 0.00 | 0.17 | 0.17 | 34 | 1005.6 |
| 20260505010535 | 72 | 202 | 6.0 | 16.0 | 0.00 | 0.17 | 0.17 | 34 | 1005.7 |
| 20260505010033 | 72 | 188 | 8.0 | 15.0 | 0.00 | 0.17 | 0.17 | 33 | 1005.6 |
| 20260505005533 | 73 | 202 | 1.0 | 6.0 | 0.00 | 0.17 | 0.17 | 33 | 1005.6 |
| 20260505005033 | 73 | 173 | 0.0 | 1.0 | 0.00 | 0.17 | 0.17 | 33 | 1005.5 |
| 20260505004554 | 73 | 199 | 0.0 | 0.0 | 0.00 | 0.17 | 0.17 | 33 | 1005.6 |
| 20260505004031 | 73 | 202 | 0.0 | 0.0 | 0.00 | 0.17 | 0.17 | 33 | 1005.8 |
| 20260505003534 | 73 | 210 | 0.0 | 0.0 | 0.00 | 0.17 | 0.17 | 32 | 1005.8 |
| 20260505003031 | 73 | 214 | 0.0 | 0.0 | 0.00 | 0.17 | 0.17 | 32 | 1005.7 |
| 20260505002530 | 74 | 211 | 0.0 | 0.0 | 0.00 | 0.17 | 0.17 | 32 | 1005.7 |
| 20260505002030 | 74 | 213 | 0.0 | 0.0 | 0.00 | 0.17 | 0.17 | 32 | 1005.9 |
| 20260505001535 | 74 | 223 | 0.0 | 0.0 | 0.00 | 0.17 | 0.17 | 32 | 1005.9 |
| 20260505001032 | 74 | 191 | 0.0 | 0.0 | 0.00 | 0.17 | 0.17 | 33 | 1006.0 |
| 20260505000527 | 74 | 236 | 0.0 | 0.0 | 0.00 | 0.17 | 0.17 | 33 | 1006.0 |
| 20260505000026 | 74 | 226 | 0.0 | 0.0 | 0.00 | 0.17 | 0.17 | 33 | 1006.2 |
| 20260504235526 | 74 | 217 | 0.0 | 0.0 | 0.00 | 0.17 | 0.17 | 33 | 1006.3 |
| 20260504235026 | 74 | 214 | 0.0 | 0.0 | 0.00 | 0.17 | 0.17 | 33 | 1006.3 |
| 20260504234525 | 74 | 182 | 0.0 | 0.0 | 0.00 | 0.17 | 0.17 | 33 | 1006.4 |
| 20260504234024 | 74 | 229 | 0.0 | 0.0 | 0.00 | 0.17 | 0.17 | 33 | 1006.4 |
| 20260504233523 | 75 | 227 | 0.0 | 0.0 | 0.00 | 0.17 | 0.17 | 33 | 1006.6 |
| 20260504233024 | 75 | 213 | 0.0 | 0.0 | 0.00 | 0.17 | 0.17 | 33 | 1006.7 |
| 20260504232522 | 75 | 215 | 0.0 | 0.0 | 0.00 | 0.17 | 0.17 | 33 | 1006.7 |
| 20260504232020 | 75 | 216 | 0.0 | 0.0 | 0.00 | 0.17 | 0.17 | 32 | 1006.9 |
| 20260504231519 | 75 | 228 | 0.0 | 0.0 | 0.00 | 0.17 | 0.17 | 32 | 1007.1 |
| 20260504231019 | 75 | 232 | 0.0 | 0.0 | 0.00 | 0.17 | 0.17 | 32 | 1007.4 |
| 20260504230520 | 76 | 236 | 0.0 | 0.0 | 0.00 | 0.17 | 0.17 | 32 | 1007.5 |
| 20260504230016 | 76 | 224 | 0.0 | 0.0 | 0.00 | 0.17 | 0.17 | 32 | 1007.7 |
| 20260504225515 | 76 | 200 | 0.0 | 0.0 | 0.00 | 0.17 | 0.17 | 32 | 1007.8 |
| 20260504225014 | 76 | 237 | 0.0 | 0.0 | 0.00 | 0.17 | 0.17 | 32 | 1007.8 |
| 20260504224515 | 76 | 244 | 0.0 | 0.0 | 0.00 | 0.17 | 0.17 | 32 | 1007.9 |
| 20260504224014 | 76 | 232 | 0.0 | 0.0 | 0.00 | 0.17 | 0.17 | 32 | 1007.9 |
| 20260504223513 | 76 | 254 | 0.0 | 0.0 | 0.00 | 0.17 | 0.17 | 32 | 1007.9 |
| 20260504223013 | 76 | 225 | 0.0 | 0.0 | 0.00 | 0.17 | 0.17 | 30 | 1008.0 |
| 20260504222514 | 76 | 236 | 0.0 | 0.0 | 0.00 | 0.17 | 0.17 | 31 | 1008.0 |
| 20260504222013 | 76 | 221 | 0.0 | 0.0 | 0.00 | 0.17 | 0.17 | 29 | 1008.1 |
| 20260504221513 | 77 | 261 | 0.0 | 0.0 | 0.00 | 0.17 | 0.17 | 29 | 1008.1 |
| 20260504221012 | 77 | 243 | 0.0 | 0.0 | 0.00 | 0.17 | 0.17 | 29 | 1008.2 |
| 20260504220512 | 77 | 205 | 0.0 | 0.0 | 0.00 | 0.17 | 0.17 | 28 | 1008.1 |
| 20260504220011 | 77 | 207 | 0.0 | 0.0 | 0.00 | 0.17 | 0.17 | 29 | 1007.9 |
| 20260504215512 | 77 | 225 | 0.0 | 0.0 | 0.00 | 0.17 | 0.17 | 30 | 1008.0 |
| 20260504215015 | 77 | 252 | 0.0 | 0.0 | 0.00 | 0.17 | 0.17 | 29 | 1008.0 |
| 20260504214510 | 78 | 217 | 0.0 | 0.0 | 0.00 | 0.17 | 0.17 | 29 | 1008.0 |
| 20260504214009 | 77 | 238 | 0.0 | 0.0 | 0.00 | 0.17 | 0.17 | 29 | 1008.0 |
| 20260504213512 | 77 | 225 | 0.0 | 0.0 | 0.00 | 0.17 | 0.17 | 30 | 1008.0 |
| 20260504213024 | 77 | 227 | 0.0 | 0.0 | 0.00 | 0.17 | 0.17 | 29 | 1008.0 |
| 20260504212509 | 77 | 205 | 0.0 | 5.0 | 0.00 | 0.17 | 0.17 | 30 | 1008.0 |
| 20260504212008 | 77 | 243 | 1.0 | 7.0 | 0.00 | 0.17 | 0.17 | 32 | 1008.0 |
| 20260504211507 | 77 | 232 | 4.0 | 8.0 | 0.00 | 0.17 | 0.17 | 31 | 1008.1 |
| 20260504211006 | 77 | 221 | 5.0 | 9.0 | 0.00 | 0.17 | 0.17 | 30 | 1008.1 |
| 20260504210506 | 77 | 240 | 5.0 | 8.0 | 0.00 | 0.17 | 0.17 | 30 | 1008.1 |
| 20260504210005 | 77 | 234 | 5.0 | 19.0 | 0.00 | 0.17 | 0.17 | 30 | 1008.2 |
| 20260504205505 | 77 | 232 | 6.0 | 9.0 | 0.00 | 0.17 | 0.17 | 30 | 1008.2 |
| 20260504205005 | 76 | 229 | 6.0 | 17.0 | 0.00 | 0.17 | 0.17 | 31 | 1008.2 |
| 20260504204507 | 76 | 248 | 6.0 | 17.0 | 0.00 | 0.17 | 0.17 | 32 | 1008.1 |
| 20260504204004 | 77 | 236 | 8.0 | 17.0 | 0.00 | 0.17 | 0.17 | 34 | 1008.2 |
| 20260504203505 | 77 | 236 | 7.0 | 19.0 | 0.00 | 0.17 | 0.17 | 32 | 1008.2 |
| 20260504203004 | 77 | 217 | 7.0 | 20.0 | 0.00 | 0.17 | 0.17 | 34 | 1008.2 |
| 20260504202504 | 77 | 233 | 7.0 | 20.0 | 0.00 | 0.17 | 0.17 | 33 | 1008.3 |
| 20260504202004 | 77 | 236 | 11.0 | 18.0 | 0.00 | 0.17 | 0.17 | 32 | 1008.2 |
| 20260504201502 | 76 | 195 | 8.0 | 20.0 | 0.00 | 0.17 | 0.17 | 33 | 1008.1 |
| 20260504201002 | 76 | 227 | 0.0 | 0.0 | 0.00 | 0.17 | 0.17 | 35 | 1008.2 |
| 20260504200502 | 76 | 225 | 0.0 | 0.0 | 0.00 | 0.17 | 0.17 | 34 | 1008.4 |
| 20260504200004 | 77 | 186 | 0.0 | 0.0 | 0.00 | 0.17 | 0.17 | 35 | 1008.3 |
| 20260504195600 | 77 | 251 | 0.0 | 0.0 | 0.00 | 0.17 | 0.17 | 34 | 1008.4 |
| 20260504195059 | 77 | 238 | 0.0 | 0.0 | 0.00 | 0.17 | 0.17 | 35 | 1008.6 |
| 20260504194659 | 76 | 170 | 0.0 | 0.0 | 0.00 | 0.17 | 0.17 | 35 | 1008.6 |
| 20260504194057 | 75 | 227 | 0.0 | 0.0 | 0.00 | 0.17 | 0.17 | 36 | 1008.8 |
| 20260504193557 | 76 | 244 | 0.0 | 0.0 | 0.00 | 0.17 | 0.17 | 35 | 1008.9 |
| 20260504193057 | 76 | 236 | 0.0 | 0.0 | 0.00 | 0.17 | 0.17 | 35 | 1009.0 |
| 20260504192555 | 76 | 234 | 0.0 | 0.0 | 0.00 | 0.17 | 0.17 | 36 | 1009.1 |
| 20260504192055 | 76 | 245 | 0.0 | 0.0 | 0.00 | 0.17 | 0.17 | 37 | 1009.1 |
| 20260504191615 | 76 | 211 | 0.0 | 0.0 | 0.00 | 0.17 | 0.17 | 34 | 1009.3 |
| 20260504191052 | 76 | 249 | 0.0 | 0.0 | 0.00 | 0.17 | 0.17 | 36 | 1009.4 |
| 20260504190552 | 75 | 221 | 0.0 | 0.0 | 0.00 | 0.17 | 0.17 | 35 | 1009.4 |
| 20260504190051 | 75 | 246 | 0.0 | 0.0 | 0.00 | 0.17 | 0.17 | 35 | 1009.7 |
| 20260504185551 | 75 | 211 | 0.0 | 0.0 | 0.00 | 0.17 | 0.17 | 36 | 1009.6 |
| 20260504185050 | 75 | 226 | 0.0 | 0.0 | 0.00 | 0.17 | 0.17 | 35 | 1009.8 |
| 20260504184600 | 75 | 244 | 0.0 | 0.0 | 0.00 | 0.17 | 0.17 | 35 | 1009.8 |
| 20260504184052 | 75 | 250 | 0.0 | 0.0 | 0.00 | 0.17 | 0.17 | 37 | 1009.8 |
| 20260504183551 | 74 | 198 | 0.0 | 0.0 | 0.00 | 0.17 | 0.17 | 38 | 1009.8 |
| 20260504183049 | 74 | 207 | 0.0 | 6.0 | 0.00 | 0.17 | 0.17 | 36 | 1009.8 |
| 20260504182553 | 74 | 242 | 1.0 | 6.0 | 0.00 | 0.17 | 0.17 | 36 | 1009.7 |
| 20260504182048 | 74 | 208 | 0.0 | 0.0 | 0.00 | 0.17 | 0.17 | 35 | 1009.9 |
| 20260504181547 | 75 | 247 | 0.0 | 0.0 | 0.00 | 0.17 | 0.17 | 38 | 1009.8 |
| 20260504181046 | 74 | 219 | 0.0 | 0.0 | 0.00 | 0.17 | 0.17 | 37 | 1009.8 |
| 20260504180547 | 74 | 225 | 0.0 | 0.0 | 0.00 | 0.17 | 0.17 | 38 | 1009.9 |
| 20260504180045 | 74 | 225 | 0.0 | 0.0 | 0.00 | 0.17 | 0.17 | 38 | 1009.9 |
| 20260504175546 | 74 | 234 | 0.0 | 4.0 | 0.00 | 0.17 | 0.17 | 37 | 1009.9 |
| 20260504175044 | 74 | 204 | 0.0 | 4.0 | 0.00 | 0.17 | 0.17 | 38 | 1010.0 |
| 20260504174542 | 74 | 236 | 0.0 | 0.0 | 0.00 | 0.17 | 0.17 | 40 | 1009.9 |
| 20260504174042 | 73 | 204 | 0.0 | 0.0 | 0.00 | 0.17 | 0.17 | 36 | 1009.9 |
| 20260504173540 | 73 | 210 | 0.0 | 0.0 | 0.00 | 0.17 | 0.17 | 38 | 1010.0 |
| 20260504173039 | 72 | 192 | 0.0 | 0.0 | 0.00 | 0.17 | 0.17 | 41 | 1010.0 |
| 20260504172539 | 72 | 233 | 0.0 | 0.0 | 0.00 | 0.17 | 0.17 | 39 | 1010.1 |
| 20260504172042 | 72 | 202 | 0.0 | 0.0 | 0.00 | 0.17 | 0.17 | 40 | 1010.1 |
| 20260504171540 | 72 | 240 | 0.0 | 0.0 | 0.00 | 0.17 | 0.17 | 39 | 1010.2 |
| 20260504171037 | 71 | 198 | 0.0 | 15.0 | 0.00 | 0.17 | 0.17 | 41 | 1010.2 |
| 20260504170537 | 71 | 202 | 9.0 | 16.0 | 0.00 | 0.17 | 0.17 | 41 | 1010.2 |
| 20260504151018 | 66 | 211 | 0.0 | 0.0 | 0.00 | 0.16 | 0.16 | 46 | 1011.0 |
| 20260504150521 | 66 | 209 | 0.0 | 0.0 | 0.00 | 0.16 | 0.16 | 46 | 1011.0 |
| 20260504141008 | 61 | 188 | 5.0 | 10.0 | 0.00 | 0.16 | 0.16 | 50 | 1011.8 |
| 20260504140504 | 61 | 181 | 6.0 | 10.0 | 0.00 | 0.16 | 0.16 | 50 | 1011.8 |
| 20260504130551 | 57 | 174 | 0.0 | 0.0 | 0.00 | 0.16 | 0.16 | 54 | 1012.1 |
| 20260504110544 | 54 | 238 | 0.0 | 0.0 | 0.00 | 0.16 | 0.16 | 53 | 1012.9 |
| 20260504100541 | 54 | 193 | 0.0 | 0.0 | 0.00 | 0.16 | 0.16 | 51 | 1013.0 |
| 20260504081538 | 53 | 192 | 0.0 | 0.0 | 0.00 | 0.16 | 0.16 | 53 | 1011.6 |
| 20260504081036 | 53 | 190 | 0.0 | 0.0 | 0.00 | 0.16 | 0.16 | 54 | 1011.6 |
| 20260504080536 | 53 | 200 | 0.0 | 0.0 | 0.00 | 0.16 | 0.16 | 55 | 1011.7 |
| 20260504050506 | 55 | 175 | 0.0 | 0.0 | 0.00 | 0.00 | 0.00 | 48 | 1013.9 |
| 20260504050004 | 55 | 165 | 0.0 | 0.0 | 0.00 | 0.00 | 0.00 | 48 | 1013.9 |
| 20260504045502 | 55 | 164 | 0.0 | 0.0 | 0.00 | 0.00 | 0.00 | 48 | 1013.9 |
| 20260504045001 | 55 | 154 | 0.0 | 0.0 | 0.00 | 0.00 | 0.00 | 48 | 1014.0 |
| 20260504044501 | 55 | 161 | 0.0 | 0.0 | 0.00 | 0.00 | 0.00 | 47 | 1014.2 |
| 20260504044002 | 55 | 158 | 0.0 | 0.0 | 0.00 | 0.00 | 0.00 | 47 | 1014.4 |
| 20260504043501 | 55 | 159 | 0.0 | 0.0 | 0.00 | 0.00 | 0.00 | 47 | 1014.3 |